HAZ4607 ZYTX-ZLXY

Flight info

Callsign HAZ4607
Flight time 2h 40m
Altitude 36100
Route OMD61D OMDUS A575 CHG W31 KAKAT W28 UPREK/K0861S1160 W28 VERMI DCT TMR DCT OSRUR DCT IGPAS DCT SUROS DCT HET W84 IBARO W47 LOVRA LOVRA2Y
Aircraft A339/H-SADE1E2E3GHIJ3J5M1P2RWXY/LB2D1

Departure

Time 2026-04-23 02:03
Airport Shenyang Taoxian International Airport (ZYTX)

Arrival

Time 2026-04-23 04:44
Airport Xi'an Xianyang International Airport (ZLXY)
Time Latitude Longitude Altitude Speed Heading
2026-04-23 01:47 41.62854 123.48754 215 ft 0 kts 35°
2026-04-23 01:53 41.62850 123.48750 215 ft 2 kts 36°
2026-04-23 01:53 41.62838 123.48738 215 ft 2 kts 35°
2026-04-23 01:53 41.62825 123.48727 215 ft 2 kts 34°
2026-04-23 01:53 41.62813 123.48714 215 ft 2 kts 35°
2026-04-23 01:54 41.62805 123.48708 215 ft 1 kts 35°
2026-04-23 01:54 41.62792 123.48698 215 ft 2 kts 11°
2026-04-23 01:54 41.62777 123.48697 215 ft 2 kts 347°
2026-04-23 01:54 41.62763 123.48704 215 ft 2 kts 324°
2026-04-23 01:55 41.62758 123.48710 215 ft 1 kts 317°
2026-04-23 01:55 41.62756 123.48711 215 ft 0 kts 318°
2026-04-23 01:55 41.62757 123.48711 215 ft 0 kts 318°
2026-04-23 01:56 41.62758 123.48709 215 ft 1 kts 318°
2026-04-23 01:56 41.62769 123.48696 215 ft 3 kts 319°
2026-04-23 01:57 41.62792 123.48669 215 ft 5 kts 319°
2026-04-23 01:57 41.62826 123.48631 215 ft 7 kts 319°
2026-04-23 01:57 41.62868 123.48583 215 ft 8 kts 318°
2026-04-23 01:57 41.62918 123.48524 215 ft 10 kts 318°
2026-04-23 01:58 41.62978 123.48453 215 ft 13 kts 318°
2026-04-23 01:58 41.63056 123.48361 215 ft 15 kts 318°
2026-04-23 01:58 41.63103 123.48241 215 ft 15 kts 273°
2026-04-23 01:58 41.63136 123.48130 215 ft 12 kts 316°
2026-04-23 01:59 41.63203 123.48049 215 ft 13 kts 318°
2026-04-23 01:59 41.63275 123.47965 215 ft 13 kts 318°
2026-04-23 01:59 41.63349 123.47879 215 ft 12 kts 318°
2026-04-23 01:59 41.63382 123.47784 215 ft 11 kts 254°
2026-04-23 02:00 41.63338 123.47707 215 ft 10 kts 231°
2026-04-23 02:00 41.63270 123.47602 215 ft 19 kts 228°
2026-04-23 02:00 41.63174 123.47459 215 ft 20 kts 228°
2026-04-23 02:00 41.63081 123.47317 215 ft 20 kts 229°
2026-04-23 02:01 41.62989 123.47178 215 ft 19 kts 228°
2026-04-23 02:01 41.62935 123.47079 215 ft 5 kts 269°
2026-04-23 02:01 41.62959 123.47028 215 ft 7 kts 317°
2026-04-23 02:01 41.63002 123.46979 215 ft 8 kts 319°
2026-04-23 02:02 41.63045 123.46940 215 ft 4 kts 359°
2026-04-23 02:02 41.63079 123.46962 215 ft 6 kts 37°
2026-04-23 02:02 41.63114 123.47008 215 ft 9 kts 46°
2026-04-23 02:02 41.63268 123.47238 215 ft 64 kts 49°
2026-04-23 02:03 41.63694 123.47887 215 ft 120 kts 49°
2026-04-23 02:03 41.64362 123.48891 216 ft 166 kts 47°
2026-04-23 02:03 41.65199 123.50140 476 ft 184 kts 50°
2026-04-23 02:03 41.66023 123.51372 1165 ft 176 kts 50°
2026-04-23 02:04 41.66843 123.52596 1722 ft 179 kts 50°
2026-04-23 02:04 41.67667 123.53834 2291 ft 180 kts 50°
2026-04-23 02:04 41.68506 123.55099 2869 ft 180 kts 50°
2026-04-23 02:04 41.69334 123.56348 3418 ft 181 kts 50°
2026-04-23 02:05 41.70184 123.57659 3754 ft 195 kts 50°
2026-04-23 02:05 41.71113 123.59098 4055 ft 211 kts 50°
2026-04-23 02:05 41.72105 123.60628 4368 ft 228 kts 48°
2026-04-23 02:05 41.73190 123.62279 4701 ft 246 kts 47°
2026-04-23 02:06 41.74363 123.64057 5052 ft 263 kts 47°
2026-04-23 02:06 41.75597 123.65934 5601 ft 272 kts 48°
2026-04-23 02:06 41.76728 123.67954 6251 ft 276 kts 65°
2026-04-23 02:06 41.77090 123.70473 6918 ft 282 kts 94°
2026-04-23 02:07 41.76528 123.72977 7557 ft 287 kts 122°
2026-04-23 02:07 41.75182 123.74936 8175 ft 290 kts 140°
2026-04-23 02:07 41.73577 123.76623 8753 ft 295 kts 150°
2026-04-23 02:07 41.71655 123.77485 9330 ft 297 kts 178°
2026-04-23 02:08 41.69637 123.77122 9957 ft 294 kts 205°
2026-04-23 02:08 41.67952 123.75668 10475 ft 294 kts 230°
2026-04-23 02:08 41.66671 123.73456 10784 ft 306 kts 238°
2026-04-23 02:08 41.65404 123.71088 11073 ft 322 kts 238°
2026-04-23 02:09 41.64062 123.68620 11353 ft 338 kts 237°
2026-04-23 02:09 41.62635 123.66047 11647 ft 352 kts 237°
2026-04-23 02:09 41.61161 123.63420 12172 ft 359 kts 237°
2026-04-23 02:09 41.59650 123.60748 12853 ft 361 kts 237°
2026-04-23 02:10 41.58151 123.58083 13548 ft 362 kts 239°
2026-04-23 02:10 41.57017 123.55119 14190 ft 357 kts 257°
2026-04-23 02:10 41.56607 123.51884 14799 ft 354 kts 273°
2026-04-23 02:10 41.56762 123.48574 15435 ft 354 kts 278°
2026-04-23 02:11 41.56983 123.45307 16041 ft 357 kts 278°
2026-04-23 02:11 41.57198 123.41996 16640 ft 360 kts 278°
2026-04-23 02:11 41.57407 123.38630 17254 ft 363 kts 278°
2026-04-23 02:11 41.57605 123.35299 17835 ft 366 kts 278°
2026-04-23 02:12 41.57801 123.31894 18385 ft 370 kts 277°
2026-04-23 02:12 41.57997 123.28487 18964 ft 374 kts 277°
2026-04-23 02:12 41.58201 123.25013 19582 ft 376 kts 278°
2026-04-23 02:12 41.58514 123.21563 20153 ft 377 kts 281°
2026-04-23 02:13 41.58923 123.18087 20686 ft 380 kts 282°
2026-04-23 02:13 41.59337 123.14621 21216 ft 383 kts 281°
2026-04-23 02:13 41.59758 123.11100 21708 ft 386 kts 282°
2026-04-23 02:13 41.60179 123.07560 22221 ft 389 kts 282°
2026-04-23 02:14 41.60601 123.04010 22715 ft 391 kts 281°
2026-04-23 02:14 41.61028 123.00399 23153 ft 395 kts 281°
2026-04-23 02:14 41.61452 122.96799 23613 ft 397 kts 281°
2026-04-23 02:14 41.61881 122.93147 24067 ft 400 kts 281°
2026-04-23 02:15 41.62741 122.85768 24931 ft 405 kts 281°
2026-04-23 02:15 41.63173 122.82054 25371 ft 408 kts 281°
2026-04-23 02:15 41.63602 122.78352 25804 ft 409 kts 281°
2026-04-23 02:16 41.64036 122.74599 26188 ft 412 kts 281°
2026-04-23 02:16 41.64473 122.70802 26557 ft 415 kts 281°
2026-04-23 02:16 41.64910 122.66998 26942 ft 417 kts 281°
2026-04-23 02:16 41.65348 122.63171 27310 ft 418 kts 281°
2026-04-23 02:17 41.65787 122.59335 27696 ft 420 kts 282°
2026-04-23 02:17 41.66227 122.55471 28055 ft 422 kts 281°
2026-04-23 02:17 41.66666 122.51605 28412 ft 423 kts 281°
2026-04-23 02:17 41.67110 122.47691 28729 ft 426 kts 281°
2026-04-23 02:18 41.67545 122.43819 29037 ft 428 kts 281°
2026-04-23 02:18 41.67989 122.39862 29359 ft 430 kts 281°
2026-04-23 02:18 41.68433 122.35896 29657 ft 432 kts 281°
2026-04-23 02:18 41.68868 122.31982 30020 ft 432 kts 281°
2026-04-23 02:19 41.69313 122.27979 30472 ft 431 kts 281°
2026-04-23 02:19 41.69729 122.24078 30905 ft 430 kts 279°
2026-04-23 02:19 41.70024 122.20066 31289 ft 430 kts 276°
2026-04-23 02:19 41.70163 122.16132 31654 ft 430 kts 274°
2026-04-23 02:20 41.70149 122.12105 32007 ft 431 kts 271°
2026-04-23 02:20 41.69980 122.08117 32425 ft 430 kts 269°
2026-04-23 02:20 41.69662 122.04185 32815 ft 429 kts 265°
2026-04-23 02:20 41.69196 122.00268 33213 ft 428 kts 263°
2026-04-23 02:21 41.68659 121.96374 33525 ft 427 kts 263°
2026-04-23 02:21 41.68118 121.92479 33844 ft 426 kts 263°
2026-04-23 02:21 41.67578 121.88620 34241 ft 424 kts 263°
2026-04-23 02:21 41.67035 121.84747 34498 ft 424 kts 262°
2026-04-23 02:22 41.66495 121.80893 34733 ft 425 kts 263°
2026-04-23 02:22 41.65949 121.77020 34999 ft 425 kts 262°
2026-04-23 02:22 41.65403 121.73143 35067 ft 427 kts 262°
2026-04-23 02:22 41.64853 121.69254 35258 ft 427 kts 262°
2026-04-23 02:23 41.64299 121.65369 35473 ft 427 kts 262°
2026-04-23 02:23 41.63745 121.61476 35638 ft 428 kts 262°
2026-04-23 02:23 41.63195 121.57627 35788 ft 429 kts 262°
2026-04-23 02:23 41.62633 121.53715 35958 ft 429 kts 262°
2026-04-23 02:24 41.62074 121.49805 36002 ft 429 kts 262°
2026-04-23 02:24 41.60950 121.42004 36013 ft 431 kts 262°
2026-04-23 02:25 41.59818 121.34177 36031 ft 431 kts 262°
2026-04-23 02:25 41.58673 121.26317 36027 ft 431 kts 262°
2026-04-23 02:26 41.57647 121.18443 36052 ft 431 kts 265°
2026-04-23 02:26 41.57136 121.10551 36017 ft 430 kts 268°
2026-04-23 02:27 41.56743 121.02573 36037 ft 430 kts 268°
2026-04-23 02:27 41.56348 120.94620 36050 ft 431 kts 268°
2026-04-23 02:28 41.55953 120.86719 36021 ft 431 kts 268°
2026-04-23 02:28 41.55546 120.78744 36033 ft 431 kts 268°
2026-04-23 02:29 41.55136 120.70815 36042 ft 431 kts 269°
2026-04-23 02:29 41.54718 120.62848 36049 ft 432 kts 269°
2026-04-23 02:30 41.54344 120.54875 36020 ft 432 kts 272°
2026-04-23 02:30 41.54732 120.46960 36028 ft 430 kts 280°
2026-04-23 02:31 41.56083 120.39236 36036 ft 429 kts 289°
2026-04-23 02:31 41.58352 120.31947 36012 ft 428 kts 297°
2026-04-23 02:32 41.61163 120.24957 36056 ft 427 kts 299°
2026-04-23 02:32 41.64007 120.17983 36013 ft 427 kts 298°
2026-04-23 02:33 41.66818 120.11073 36011 ft 427 kts 298°
2026-04-23 02:33 41.69633 120.04131 35937 ft 426 kts 298°
2026-04-23 02:34 41.72463 119.97130 35996 ft 427 kts 299°
2026-04-23 02:34 41.75274 119.90158 36024 ft 427 kts 299°
2026-04-23 02:35 41.78081 119.83180 36033 ft 428 kts 299°
2026-04-23 02:35 41.80891 119.76186 35992 ft 428 kts 299°
2026-04-23 02:36 41.83698 119.69173 36001 ft 428 kts 299°
2026-04-23 02:36 41.86502 119.62150 36044 ft 428 kts 299°
2026-04-23 02:37 41.89293 119.55141 35994 ft 425 kts 299°
2026-04-23 02:37 41.92066 119.48162 35973 ft 428 kts 299°
2026-04-23 02:38 41.94868 119.41110 35988 ft 427 kts 299°
2026-04-23 02:38 41.97701 119.34154 35975 ft 427 kts 299°
2026-04-23 02:39 42.00543 119.27164 35961 ft 427 kts 299°
2026-04-23 02:39 42.03377 119.20161 35976 ft 426 kts 299°
2026-04-23 02:40 42.06192 119.13184 35977 ft 426 kts 299°
2026-04-23 02:40 42.08998 119.06206 35991 ft 428 kts 300°
2026-04-23 02:41 42.11816 118.99179 35982 ft 426 kts 300°
2026-04-23 02:41 42.14612 118.92143 35974 ft 427 kts 297°
2026-04-23 02:42 42.16853 118.84758 35968 ft 428 kts 290°
2026-04-23 02:42 42.18268 118.77016 35975 ft 431 kts 282°
2026-04-23 02:43 42.18829 118.68990 35974 ft 433 kts 274°
2026-04-23 02:43 42.18785 118.60878 35976 ft 434 kts 272°
2026-04-23 02:44 42.18691 118.52777 35995 ft 434 kts 272°
2026-04-23 02:44 42.18594 118.44665 35976 ft 434 kts 272°
2026-04-23 02:45 42.18553 118.36555 35979 ft 433 kts 275°
2026-04-23 02:45 42.19147 118.28551 35998 ft 430 kts 282°
2026-04-23 02:46 42.20514 118.20770 35989 ft 428 kts 289°
2026-04-23 02:46 42.22632 118.13294 35996 ft 426 kts 296°
2026-04-23 02:47 42.25142 118.06059 36011 ft 426 kts 296°
2026-04-23 02:47 42.27651 117.98890 36013 ft 425 kts 296°
2026-04-23 02:48 42.30161 117.91692 36011 ft 424 kts 296°
2026-04-23 02:48 42.32655 117.84525 36006 ft 424 kts 296°
2026-04-23 02:49 42.34860 117.77156 36012 ft 426 kts 290°
2026-04-23 02:49 42.36271 117.69360 36008 ft 430 kts 282°
2026-04-23 02:50 42.36839 117.61334 36020 ft 434 kts 275°
2026-04-23 02:50 42.36621 117.53139 36014 ft 438 kts 270°
2026-04-23 02:51 42.36233 117.44950 36017 ft 438 kts 270°
2026-04-23 02:51 42.35838 117.36829 36016 ft 437 kts 270°
2026-04-23 02:52 42.35436 117.28602 36025 ft 438 kts 269°
2026-04-23 02:52 42.35032 117.20437 36019 ft 438 kts 270°
2026-04-23 02:53 42.34621 117.12227 36030 ft 439 kts 269°
2026-04-23 02:53 42.34203 117.04032 36039 ft 440 kts 269°
2026-04-23 02:54 42.33779 116.95840 36041 ft 439 kts 270°
2026-04-23 02:54 42.33349 116.87624 36046 ft 440 kts 269°
2026-04-23 02:55 42.32908 116.79377 36039 ft 440 kts 269°
2026-04-23 02:55 42.32463 116.71187 36039 ft 440 kts 270°
2026-04-23 02:56 42.32011 116.62947 36034 ft 440 kts 269°
2026-04-23 02:56 42.31554 116.54740 36035 ft 439 kts 269°
2026-04-23 02:57 42.31092 116.46561 36042 ft 441 kts 269°
2026-04-23 02:57 42.30618 116.38294 36056 ft 440 kts 269°
2026-04-23 02:58 42.30145 116.30128 36046 ft 440 kts 269°
2026-04-23 02:58 42.29664 116.21909 36050 ft 441 kts 269°
2026-04-23 02:59 42.29176 116.13664 36054 ft 442 kts 269°
2026-04-23 02:59 42.28683 116.05462 36057 ft 441 kts 269°
2026-04-23 03:00 42.28179 115.97192 36059 ft 442 kts 269°
2026-04-23 03:00 42.27671 115.88959 36054 ft 441 kts 269°
2026-04-23 03:01 42.27161 115.80772 36055 ft 442 kts 269°
2026-04-23 03:01 42.26642 115.72559 36048 ft 441 kts 269°
2026-04-23 03:02 42.26118 115.64327 36060 ft 441 kts 269°
2026-04-23 03:02 42.25591 115.56086 36056 ft 441 kts 269°
2026-04-23 03:03 42.25060 115.47907 36055 ft 442 kts 269°
2026-04-23 03:03 42.24514 115.39639 36064 ft 441 kts 269°
2026-04-23 03:04 42.23968 115.31471 36060 ft 441 kts 268°
2026-04-23 03:04 42.23415 115.23238 36057 ft 441 kts 268°
2026-04-23 03:05 42.22857 115.15035 36068 ft 442 kts 268°
2026-04-23 03:05 42.22290 115.06816 36056 ft 442 kts 268°
2026-04-23 03:06 42.21719 114.98638 36067 ft 441 kts 268°
2026-04-23 03:06 42.21138 114.90421 36056 ft 440 kts 268°
2026-04-23 03:07 42.20554 114.82239 36060 ft 442 kts 268°
2026-04-23 03:07 42.19961 114.74006 36067 ft 443 kts 268°
2026-04-23 03:08 42.19360 114.65751 36059 ft 442 kts 268°
2026-04-23 03:08 42.18759 114.57552 36057 ft 442 kts 268°
2026-04-23 03:09 42.18146 114.49307 36079 ft 443 kts 268°
2026-04-23 03:09 42.17530 114.41100 36061 ft 441 kts 268°
2026-04-23 03:10 42.16907 114.32881 36061 ft 443 kts 267°
2026-04-23 03:10 42.16278 114.24666 36059 ft 442 kts 267°
2026-04-23 03:11 42.15648 114.16487 36061 ft 443 kts 267°
2026-04-23 03:11 42.15008 114.08271 36056 ft 443 kts 267°
2026-04-23 03:12 42.14356 113.99976 36069 ft 444 kts 267°
2026-04-23 03:12 42.13702 113.91732 36071 ft 444 kts 267°
2026-04-23 03:13 42.13045 113.83557 36068 ft 443 kts 267°
2026-04-23 03:13 42.12377 113.75320 36061 ft 441 kts 267°
2026-04-23 03:14 42.11707 113.67123 36068 ft 442 kts 267°
2026-04-23 03:14 42.10814 113.58969 36075 ft 445 kts 260°
2026-04-23 03:15 42.08758 113.51096 36068 ft 450 kts 249°
2026-04-23 03:15 42.05514 113.43902 36073 ft 458 kts 237°
2026-04-23 03:16 42.01188 113.37558 36078 ft 462 kts 229°
2026-04-23 03:16 41.94333 113.28517 36080 ft 464 kts 228°
2026-04-23 03:17 41.89746 113.22468 36082 ft 463 kts 228°
2026-04-23 03:17 41.85166 113.16429 36085 ft 463 kts 227°
2026-04-23 03:18 41.80350 113.10651 36087 ft 465 kts 225°
2026-04-23 03:18 41.75480 113.04978 36089 ft 467 kts 224°
2026-04-23 03:19 41.70524 112.99390 36088 ft 466 kts 224°
2026-04-23 03:19 41.65572 112.93820 36090 ft 469 kts 224°
2026-04-23 03:20 41.60591 112.88224 36084 ft 467 kts 224°
2026-04-23 03:20 41.55626 112.82650 36095 ft 469 kts 224°
2026-04-23 03:21 41.50666 112.77101 36089 ft 467 kts 224°
2026-04-23 03:21 41.45674 112.71516 36094 ft 467 kts 224°
2026-04-23 03:22 41.40778 112.65874 36114 ft 468 kts 225°
2026-04-23 03:22 41.35883 112.60201 36117 ft 468 kts 225°
2026-04-23 03:23 41.30965 112.54524 36096 ft 468 kts 224°
2026-04-23 03:23 41.26057 112.48876 36101 ft 470 kts 224°
2026-04-23 03:24 41.21122 112.43217 36112 ft 470 kts 224°
2026-04-23 03:24 41.16175 112.37553 36102 ft 470 kts 224°
2026-04-23 03:25 41.11218 112.31892 36116 ft 470 kts 224°
2026-04-23 03:25 41.06283 112.26265 36104 ft 472 kts 223°
2026-04-23 03:26 41.01221 112.20750 36097 ft 471 kts 222°
2026-04-23 03:26 40.96142 112.15309 36094 ft 471 kts 221°
2026-04-23 03:27 40.91068 112.09869 36087 ft 470 kts 222°
2026-04-23 03:27 40.86006 112.04436 36070 ft 472 kts 222°
2026-04-23 03:28 40.80913 111.98980 36063 ft 472 kts 222°
2026-04-23 03:28 40.75491 111.94147 36060 ft 476 kts 211°
2026-04-23 03:29 40.69388 111.90762 36070 ft 479 kts 199°
2026-04-23 03:29 40.62853 111.88979 36077 ft 481 kts 188°
2026-04-23 03:30 40.56163 111.88389 36081 ft 481 kts 185°
2026-04-23 03:30 40.49518 111.87907 36090 ft 482 kts 185°
2026-04-23 03:31 40.42851 111.87384 36101 ft 482 kts 185°
2026-04-23 03:31 40.36144 111.86839 36111 ft 483 kts 185°
2026-04-23 03:32 40.29452 111.86289 36109 ft 482 kts 185°
2026-04-23 03:32 40.22807 111.85748 36126 ft 481 kts 185°
2026-04-23 03:33 40.16124 111.85208 36110 ft 480 kts 185°
2026-04-23 03:33 40.09483 111.84673 36136 ft 481 kts 185°
2026-04-23 03:34 40.02892 111.83276 36101 ft 478 kts 198°
2026-04-23 03:34 39.96751 111.80187 36134 ft 474 kts 210°
2026-04-23 03:35 39.91249 111.75562 36140 ft 470 kts 221°
2026-04-23 03:35 39.86212 111.70117 36127 ft 470 kts 223°
2026-04-23 03:36 39.81211 111.64665 36112 ft 470 kts 223°
2026-04-23 03:36 39.76208 111.59245 36104 ft 469 kts 223°
2026-04-23 03:37 39.71220 111.53870 36112 ft 469 kts 223°
2026-04-23 03:37 39.66185 111.48457 36110 ft 469 kts 223°
2026-04-23 03:38 39.61183 111.43090 36123 ft 469 kts 223°
2026-04-23 03:38 39.56188 111.37741 36094 ft 469 kts 223°
2026-04-23 03:39 39.51162 111.32369 36100 ft 469 kts 222°
2026-04-23 03:39 39.46146 111.27020 36120 ft 469 kts 222°
2026-04-23 03:40 39.41080 111.21631 36079 ft 469 kts 222°
2026-04-23 03:40 39.36083 111.16322 36073 ft 469 kts 222°
2026-04-23 03:41 39.31030 111.10964 36112 ft 469 kts 222°
2026-04-23 03:41 39.26024 111.05669 36060 ft 469 kts 222°
2026-04-23 03:42 39.21373 110.99866 36103 ft 463 kts 235°
2026-04-23 03:42 39.18170 110.92782 36043 ft 457 kts 251°
2026-04-23 03:43 39.16591 110.84952 36076 ft 452 kts 266°
2026-04-23 03:43 39.16575 110.76943 36100 ft 448 kts 276°
2026-04-23 03:44 39.16977 110.68940 36101 ft 448 kts 276°
2026-04-23 03:44 39.17369 110.60970 36106 ft 449 kts 276°
2026-04-23 03:45 39.17745 110.52959 36124 ft 449 kts 276°
2026-04-23 03:45 39.18110 110.44958 36101 ft 449 kts 276°
2026-04-23 03:46 39.18470 110.36935 36103 ft 449 kts 276°
2026-04-23 03:46 39.18821 110.28953 36100 ft 449 kts 275°
2026-04-23 03:47 39.19166 110.20964 36090 ft 449 kts 275°
2026-04-23 03:47 39.19519 110.12996 36112 ft 448 kts 276°
2026-04-23 03:48 39.19913 110.05004 36114 ft 448 kts 276°
2026-04-23 03:48 39.20303 109.96968 36121 ft 449 kts 276°
2026-04-23 03:49 39.20680 109.88962 36111 ft 449 kts 276°
2026-04-23 03:49 39.21048 109.81001 36140 ft 449 kts 276°
2026-04-23 03:50 39.21411 109.72971 36122 ft 449 kts 276°
2026-04-23 03:50 39.21758 109.64955 36113 ft 449 kts 273°
2026-04-23 03:51 39.21473 109.60986 36100 ft 454 kts 260°
2026-04-23 03:51 39.20449 109.57087 36092 ft 459 kts 247°
2026-04-23 03:51 39.18770 109.53580 36092 ft 464 kts 234°
2026-04-23 03:51 39.16517 109.50636 36092 ft 470 kts 221°
2026-04-23 03:52 39.13740 109.48373 36086 ft 475 kts 208°
2026-04-23 03:52 39.10640 109.46989 36108 ft 479 kts 195°
2026-04-23 03:52 39.04092 109.45371 36090 ft 480 kts 193°
2026-04-23 03:53 38.97516 109.43805 36116 ft 480 kts 193°
2026-04-23 03:53 38.91000 109.42212 36105 ft 479 kts 193°
2026-04-23 03:54 38.84455 109.40592 36106 ft 480 kts 194°
2026-04-23 03:54 38.77904 109.38966 36105 ft 479 kts 194°
2026-04-23 03:55 38.71384 109.37354 36091 ft 479 kts 194°
2026-04-23 03:55 38.64848 109.35743 36100 ft 479 kts 194°
2026-04-23 03:56 38.58289 109.34131 36107 ft 479 kts 193°
2026-04-23 03:56 38.51773 109.32533 36106 ft 479 kts 193°
2026-04-23 03:57 38.45242 109.30935 36118 ft 479 kts 193°
2026-04-23 03:57 38.38678 109.29504 36114 ft 480 kts 189°
2026-04-23 03:58 38.31981 109.28878 36084 ft 481 kts 185°
2026-04-23 03:58 38.25338 109.28481 36089 ft 481 kts 185°
2026-04-23 03:59 38.18644 109.28072 36120 ft 481 kts 185°
2026-04-23 03:59 38.11962 109.27663 36087 ft 481 kts 185°
2026-04-23 04:00 38.05280 109.27254 36082 ft 480 kts 185°
2026-04-23 04:00 37.98641 109.26851 36089 ft 480 kts 185°
2026-04-23 04:01 37.91977 109.26453 36099 ft 480 kts 185°
2026-04-23 04:01 37.85283 109.26055 36080 ft 481 kts 185°
2026-04-23 04:02 37.78629 109.25664 36092 ft 480 kts 185°
2026-04-23 04:02 37.71977 109.25274 36083 ft 480 kts 185°
2026-04-23 04:03 37.65300 109.24881 36091 ft 479 kts 185°
2026-04-23 04:03 37.58665 109.24489 36102 ft 479 kts 185°
2026-04-23 04:04 37.52002 109.24100 36111 ft 479 kts 185°
2026-04-23 04:04 37.45343 109.23710 36093 ft 479 kts 185°
2026-04-23 04:05 37.38723 109.23322 36109 ft 479 kts 185°
2026-04-23 04:05 37.32067 109.22935 36124 ft 479 kts 185°
2026-04-23 04:06 37.25415 109.22547 36123 ft 479 kts 185°
2026-04-23 04:06 37.18775 109.22161 36120 ft 479 kts 185°
2026-04-23 04:07 37.12142 109.21776 36108 ft 478 kts 186°
2026-04-23 04:07 37.05504 109.21394 36128 ft 477 kts 186°
2026-04-23 04:08 36.98898 109.21011 36137 ft 477 kts 186°
2026-04-23 04:08 36.92255 109.20628 36127 ft 477 kts 186°
2026-04-23 04:09 36.85635 109.20247 36123 ft 477 kts 186°
2026-04-23 04:09 36.78973 109.19863 36111 ft 478 kts 186°
2026-04-23 04:10 36.72352 109.19484 36136 ft 478 kts 186°
2026-04-23 04:10 36.65948 109.19118 36128 ft 478 kts 186°
2026-04-23 04:11 36.59316 109.18739 36117 ft 478 kts 186°
2026-04-23 04:11 36.52689 109.18365 36132 ft 478 kts 186°
2026-04-23 04:12 36.46034 109.17986 36110 ft 478 kts 186°
2026-04-23 04:12 36.39391 109.17609 36138 ft 478 kts 186°
2026-04-23 04:13 36.32766 109.17183 36116 ft 478 kts 187°
2026-04-23 04:13 36.26109 109.16724 36160 ft 478 kts 187°
2026-04-23 04:14 36.19476 109.16273 35918 ft 478 kts 187°
2026-04-23 04:14 36.16166 109.16052 35643 ft 476 kts 187°
2026-04-23 04:14 36.12856 109.15833 35448 ft 474 kts 187°
2026-04-23 04:15 36.09570 109.15613 35215 ft 473 kts 187°
2026-04-23 04:15 36.06288 109.15396 34959 ft 472 kts 187°
2026-04-23 04:15 35.99745 109.14961 34248 ft 472 kts 186°
2026-04-23 04:16 35.96470 109.14742 33745 ft 474 kts 187°
2026-04-23 04:16 35.93174 109.14508 33187 ft 474 kts 188°
2026-04-23 04:16 35.89920 109.13945 32594 ft 473 kts 195°
2026-04-23 04:16 35.86717 109.12929 31978 ft 472 kts 201°
2026-04-23 04:17 35.83688 109.11506 31381 ft 470 kts 208°
2026-04-23 04:17 35.80790 109.09673 30754 ft 468 kts 214°
2026-04-23 04:17 35.78092 109.07470 30141 ft 465 kts 220°
2026-04-23 04:17 35.75571 109.05012 29488 ft 464 kts 223°
2026-04-23 04:18 35.73094 109.02526 29061 ft 460 kts 223°
2026-04-23 04:18 35.70622 109.00037 28644 ft 455 kts 223°
2026-04-23 04:18 35.68198 108.97607 28257 ft 449 kts 223°
2026-04-23 04:18 35.65795 108.95201 27884 ft 444 kts 223°
2026-04-23 04:19 35.63395 108.92802 27483 ft 440 kts 223°
2026-04-23 04:19 35.61036 108.90450 27102 ft 436 kts 223°
2026-04-23 04:19 35.58718 108.88145 26701 ft 432 kts 223°
2026-04-23 04:19 35.56375 108.85817 26327 ft 427 kts 223°
2026-04-23 04:20 35.54100 108.83559 25938 ft 424 kts 223°
2026-04-23 04:20 35.51821 108.81297 25557 ft 420 kts 223°
2026-04-23 04:20 35.49545 108.79040 25191 ft 416 kts 223°
2026-04-23 04:20 35.47298 108.76811 24798 ft 413 kts 223°
2026-04-23 04:21 35.45100 108.74635 24426 ft 410 kts 223°
2026-04-23 04:21 35.42882 108.72439 24040 ft 407 kts 223°
2026-04-23 04:21 35.40673 108.70255 23652 ft 404 kts 223°
2026-04-23 04:21 35.38512 108.68121 23285 ft 401 kts 223°
2026-04-23 04:22 35.36347 108.65983 22906 ft 399 kts 223°
2026-04-23 04:22 35.34183 108.63847 22525 ft 396 kts 223°
2026-04-23 04:22 35.32045 108.61739 22144 ft 394 kts 223°
2026-04-23 04:22 35.29916 108.59643 21771 ft 392 kts 223°
2026-04-23 04:23 35.27806 108.57572 21415 ft 389 kts 223°
2026-04-23 04:23 35.25708 108.55514 21056 ft 387 kts 223°
2026-04-23 04:23 35.23605 108.53451 20684 ft 385 kts 223°
2026-04-23 04:23 35.21533 108.51421 20326 ft 383 kts 223°
2026-04-23 04:24 35.19462 108.49394 19960 ft 381 kts 223°
2026-04-23 04:24 35.17392 108.47369 19599 ft 379 kts 223°
2026-04-23 04:24 35.15343 108.45366 19234 ft 378 kts 223°
2026-04-23 04:24 35.13298 108.43368 18860 ft 376 kts 223°
2026-04-23 04:25 35.11247 108.41363 18469 ft 375 kts 223°
2026-04-23 04:25 35.09208 108.39372 18091 ft 374 kts 223°
2026-04-23 04:25 35.07197 108.37410 17702 ft 373 kts 223°
2026-04-23 04:25 35.05183 108.35445 17319 ft 372 kts 223°
2026-04-23 04:26 35.03149 108.33461 16924 ft 371 kts 222°
2026-04-23 04:26 35.01136 108.31499 16542 ft 370 kts 221°
2026-04-23 04:26 34.99145 108.29563 16188 ft 368 kts 221°
2026-04-23 04:26 34.97138 108.27611 15822 ft 367 kts 221°
2026-04-23 04:27 34.95144 108.25675 15443 ft 365 kts 221°
2026-04-23 04:27 34.93138 108.23795 15045 ft 365 kts 215°
2026-04-23 04:27 34.90801 108.22653 14676 ft 369 kts 192°
2026-04-23 04:28 34.85842 108.23766 13959 ft 370 kts 148°
2026-04-23 04:28 34.83910 108.25809 13646 ft 367 kts 132°
2026-04-23 04:28 34.82189 108.28118 13300 ft 365 kts 132°
2026-04-23 04:28 34.80492 108.30384 12948 ft 364 kts 132°
2026-04-23 04:29 34.78780 108.32633 12586 ft 361 kts 135°
2026-04-23 04:29 34.76948 108.34718 12225 ft 359 kts 136°
2026-04-23 04:29 34.75181 108.36854 11883 ft 357 kts 133°
2026-04-23 04:29 34.73502 108.39072 11499 ft 355 kts 131°
2026-04-23 04:30 34.71873 108.41308 11162 ft 353 kts 131°
2026-04-23 04:30 34.70259 108.43527 10791 ft 351 kts 131°
2026-04-23 04:30 34.68648 108.45719 10522 ft 346 kts 131°
2026-04-23 04:30 34.67054 108.47857 10298 ft 339 kts 132°
2026-04-23 04:31 34.65484 108.49939 10195 ft 329 kts 133°
2026-04-23 04:31 34.63961 108.51937 10186 ft 317 kts 133°
2026-04-23 04:31 34.62469 108.53884 10095 ft 307 kts 133°
2026-04-23 04:31 34.61047 108.55732 10105 ft 297 kts 133°
2026-04-23 04:32 34.59656 108.57533 10020 ft 288 kts 133°
2026-04-23 04:32 34.58315 108.59268 9971 ft 278 kts 133°
2026-04-23 04:32 34.57007 108.60959 9989 ft 272 kts 132°
2026-04-23 04:32 34.55586 108.62432 9866 ft 268 kts 155°
2026-04-23 04:33 34.53774 108.62788 9686 ft 264 kts 189°
2026-04-23 04:33 34.52013 108.62171 9429 ft 264 kts 198°
2026-04-23 04:33 34.50283 108.61443 9166 ft 264 kts 198°
2026-04-23 04:33 34.48547 108.60742 8942 ft 262 kts 197°
2026-04-23 04:34 34.46858 108.60005 8896 ft 253 kts 208°
2026-04-23 04:34 34.45476 108.58669 8739 ft 255 kts 226°
2026-04-23 04:34 34.44304 108.57069 8468 ft 256 kts 228°
2026-04-23 04:34 34.43135 108.55425 8202 ft 257 kts 228°
2026-04-23 04:35 34.41959 108.53790 7875 ft 257 kts 228°
2026-04-23 04:35 34.40776 108.52161 7636 ft 257 kts 227°
2026-04-23 04:35 34.39608 108.50565 7426 ft 256 kts 227°
2026-04-23 04:35 34.38414 108.48942 7184 ft 256 kts 227°
2026-04-23 04:36 34.37228 108.47336 6908 ft 256 kts 227°
2026-04-23 04:36 34.36047 108.45740 6621 ft 255 kts 227°
2026-04-23 04:36 34.34861 108.44134 6400 ft 254 kts 226°
2026-04-23 04:36 34.33465 108.42875 6154 ft 254 kts 196°
2026-04-23 04:37 34.31733 108.42806 5924 ft 250 kts 164°
2026-04-23 04:37 34.30079 108.43464 5636 ft 250 kts 158°
2026-04-23 04:37 34.28436 108.44182 5377 ft 250 kts 159°
2026-04-23 04:37 34.26821 108.44961 5159 ft 248 kts 144°
2026-04-23 04:38 34.25769 108.46529 4974 ft 242 kts 106°
2026-04-23 04:38 34.25737 108.48502 4704 ft 244 kts 69°
2026-04-23 04:38 34.26720 108.50150 4530 ft 241 kts 43°
2026-04-23 04:38 34.27968 108.51488 4398 ft 237 kts 43°
2026-04-23 04:39 34.29141 108.52859 4193 ft 234 kts 46°
2026-04-23 04:39 34.30262 108.54285 4043 ft 229 kts 48°
2026-04-23 04:39 34.31313 108.55696 3969 ft 221 kts 49°
2026-04-23 04:39 34.32295 108.57047 3963 ft 212 kts 49°
2026-04-23 04:40 34.33271 108.58403 3962 ft 210 kts 49°
2026-04-23 04:40 34.34201 108.59696 3965 ft 192 kts 49°
2026-04-23 04:40 34.35031 108.60849 3963 ft 176 kts 49°
2026-04-23 04:40 34.35828 108.61955 3955 ft 171 kts 49°
2026-04-23 04:41 34.36589 108.63009 3787 ft 161 kts 50°
2026-04-23 04:41 34.37319 108.64020 3571 ft 156 kts 50°
2026-04-23 04:41 34.38011 108.64980 3362 ft 150 kts 49°
2026-04-23 04:41 34.38696 108.65927 3177 ft 149 kts 50°
2026-04-23 04:42 34.39380 108.66876 2991 ft 149 kts 50°
2026-04-23 04:42 34.40058 108.67813 2802 ft 148 kts 50°
2026-04-23 04:42 34.40740 108.68756 2610 ft 148 kts 50°
2026-04-23 04:42 34.41422 108.69701 2414 ft 148 kts 50°
2026-04-23 04:43 34.42097 108.70634 2219 ft 147 kts 50°
2026-04-23 04:43 34.42768 108.71564 2026 ft 148 kts 50°
2026-04-23 04:43 34.43448 108.72504 1836 ft 148 kts 50°
2026-04-23 04:43 34.44125 108.73434 1646 ft 147 kts 49°
2026-04-23 04:44 34.44776 108.74330 1584 ft 128 kts 50°
2026-04-23 04:44 34.45248 108.74985 1584 ft 74 kts 49°
2026-04-23 04:44 34.45511 108.75346 1584 ft 42 kts 49°
2026-04-23 04:44 34.45655 108.75633 1584 ft 35 kts 76°
2026-04-23 04:45 34.45685 108.75813 1584 ft 11 kts 101°
2026-04-23 04:45 34.45654 108.75832 1584 ft 5 kts 185°
2026-04-23 04:45 34.45617 108.75805 1584 ft 6 kts 219°
2026-04-23 04:45 34.45581 108.75760 1584 ft 8 kts 227°
2026-04-23 04:46 34.45541 108.75703 1584 ft 9 kts 230°
2026-04-23 04:46 34.45496 108.75639 1584 ft 10 kts 230°
2026-04-23 04:46 34.45444 108.75566 1584 ft 13 kts 229°
2026-04-23 04:46 34.45371 108.75466 1584 ft 16 kts 229°
2026-04-23 04:47 34.45291 108.75404 1584 ft 10 kts 166°
2026-04-23 04:47 34.45227 108.75465 1584 ft 13 kts 138°
2026-04-23 04:47 34.45147 108.75550 1584 ft 15 kts 139°
2026-04-23 04:47 34.45065 108.75637 1584 ft 15 kts 139°
2026-04-23 04:48 34.44982 108.75725 1584 ft 15 kts 139°
2026-04-23 04:48 34.44904 108.75801 1584 ft 9 kts 160°
2026-04-23 04:48 34.44853 108.75769 1584 ft 9 kts 230°
2026-04-23 04:48 34.44809 108.75708 1584 ft 10 kts 229°
2026-04-23 04:49 34.44757 108.75637 1584 ft 12 kts 228°
2026-04-23 04:49 34.44698 108.75555 1584 ft 13 kts 229°
2026-04-23 04:49 34.44627 108.75530 1584 ft 11 kts 148°
2026-04-23 04:49 34.44564 108.75594 1584 ft 12 kts 140°
2026-04-23 04:50 34.44499 108.75661 1584 ft 10 kts 140°
2026-04-23 04:50 34.44451 108.75713 1584 ft 5 kts 136°
2026-04-23 04:50 34.44424 108.75745 1584 ft 3 kts 136°
2026-04-23 04:50 34.44420 108.75750 1584 ft 0 kts 136°